Flag for Italy Weather past 2 weeks in Palermo, Italy

Now
54 °F

Passing clouds.


Feels Like: 49 °F
Forecast: 44 / 53 °F
Wind: 14 mph from Northeast

Location: Palermo / Punta Raisi

Current Time: Jan 26, 2015 at 7:38:54 PM

Latest Report: Jan 26, 2015 at 6:50 PM


Visibility: N/A

Pressure: 29.95 "Hg

Humidity: 77%

Dew point: 46 °F

Location of PalermoLocation

Historic Weather in Palermo — Graph

°F

Palermo temperature yesterday

Maximum temperature yesterday: 57 °F (at 11:50 AM)
Minimum temperature yesterday: 48 °F (at 8:20 AM)
Average temperature yesterday: 53 °F

Past Weeks' High & Low Weather Summary

 TemperatureHumidityPressure
High68 °F (Jan 16, 11:50 AM)94% (Jan 12, 12:20 AM)30.54 "Hg (Jan 12, 12:20 AM)
Low46 °F (Jan 13, 4:20 AM)35% (Jan 16, 10:50 AM)29.50 "Hg (Jan 23, 1:50 PM)
Average56 °F75%30.00 "Hg
* Reported Jan 11 6:20 PM — Jan 26 6:20 PM, Palermo, Weather by CustomWeather, © 2014

Note: Actual official high and low records may vary slightly from our data, if they occured in-between our weather recording intervals... More about our weather records

Advertising

Palermo weather history for previous 24 hours

 ConditionsComfort  
Time TempWeatherWind HumidityBarometerVisibility
6:20 PM
Jan 26
52 °FThundershowers. Passing clouds.12 mph77%29.95 "HgN/A
5:50 PM54 °FPassing clouds.13 mph72%29.95 "HgN/A
5:20 PM54 °FScattered clouds.14 mph67%29.95 "HgN/A
4:50 PM55 °FPassing clouds.13 mph67%29.92 "HgN/A
4:20 PM55 °FPassing clouds.16 mph72%29.92 "HgN/A
3:50 PM55 °FPassing clouds.15 mph67%29.92 "HgN/A
3:20 PM57 °FScattered clouds.14 mph63%29.92 "HgN/A
2:50 PM57 °FScattered clouds.13 mph63%29.92 "HgN/A
2:20 PM55 °FScattered clouds.12 mph63%29.92 "HgN/A
1:50 PM57 °FScattered clouds.12 mph63%29.95 "HgN/A
1:20 PM55 °FPassing clouds.12 mph63%29.95 "HgN/A
12:50 PM55 °FPassing clouds.9 mph63%29.95 "HgN/A
12:20 PM55 °FPassing clouds.8 mph63%29.95 "HgN/A
11:50 AM55 °FPassing clouds.7 mph67%29.95 "HgN/A
11:20 AM55 °FPassing clouds.8 mph63%29.95 "HgN/A
10:50 AM55 °FPassing clouds.3 mph72%29.98 "HgN/A
10:20 AM54 °FSunny.2 mph77%29.95 "Hg10 mi
9:50 AM54 °FSunny.2 mph77%29.95 "Hg10 mi
9:20 AM54 °FSunny.2 mph77%29.95 "Hg10 mi
8:50 AM50 °FSunny.2 mph82%29.95 "Hg10 mi
8:20 AM46 °FSunny.6 mph82%29.95 "Hg10 mi
7:50 AM48 °FSunny.6 mph82%29.95 "Hg10 mi
7:20 AM52 °FPassing clouds.3 mph77%29.92 "HgN/A
6:50 AM50 °FClear.2 mph76%29.92 "Hg10 mi
6:20 AM50 °FPassing clouds.3 mph76%29.92 "HgN/A
5:50 AM50 °FPassing clouds.6 mph76%29.92 "HgN/A
5:20 AM50 °FPassing clouds.3 mph76%29.92 "HgN/A
4:50 AM50 °FPassing clouds.7 mph76%29.92 "HgN/A
4:20 AM50 °FPassing clouds.9 mph76%29.92 "HgN/A
3:50 AM50 °FPassing clouds.9 mph76%29.92 "HgN/A
3:20 AM50 °FPassing clouds.10 mph76%29.92 "HgN/A
2:50 AM50 °FPassing clouds.8 mph76%29.92 "HgN/A
2:20 AM50 °FPassing clouds.8 mph76%29.92 "HgN/A
1:50 AM50 °FPassing clouds.8 mph76%29.92 "HgN/A
1:20 AM50 °FPassing clouds.8 mph76%29.92 "HgN/A
12:50 AM52 °FPassing clouds.9 mph72%29.92 "HgN/A
12:20 AM50 °FPassing clouds.9 mph76%29.92 "HgN/A
11:50 PM
Jan 25
50 °FPassing clouds.10 mph76%29.92 "HgN/A
11:20 PM50 °FClear.9 mph76%29.92 "Hg10 mi
10:50 PM50 °FClear.8 mph76%29.92 "Hg10 mi
10:20 PM50 °FClear.8 mph76%29.89 "Hg10 mi
9:50 PM50 °FClear.7 mph76%29.89 "Hg10 mi
9:20 PM50 °FClear.7 mph76%29.89 "Hg10 mi
8:50 PM50 °FPassing clouds.8 mph76%29.89 "HgN/A
8:20 PM50 °FPassing clouds.8 mph82%29.89 "HgN/A
7:50 PM50 °FPassing clouds.9 mph82%29.89 "HgN/A
7:20 PM50 °FPassing clouds.8 mph82%29.89 "HgN/A
Weather by CustomWeather, © 2014

See weather overviewHow to use our weather pages